Погода в Порт-оф-Спейн

Тринидад и Тобаго     10°39′19″N   61°29′00″W
темп.,
°C
ветер,
м/с
пор.,
м/с
влажн.,
%
обл.,
%
осадки,
мм/ч
давл.,
гПа
погр.,
м
9 августа, вт
вт923:00+25в239113 0.2 1013186
02:00+25в349216 0.4 1011207
05:00+25в349234 0.0 1011260
08:00+26в358934 2.4 1013310
11:00+28в357999 4.1 1014750
14:00+29всв2376100 7.3 1012666
17:00+28всв238171 1.2 1011260
20:00+25в358844 1.4 1014273
10 августа, ср
ср1023:00+25в3490100 0.4 1014225
02:00+25в239086 0.9 1012149
05:00+24в3491100 2.3 1013147
08:00+27вюв258656 7.2 1014291
11:00+30в246452 2.4 10141049
14:00+30вюв2471100 4.2 1012864
17:00+28вюв238017 2.6 1012508
20:00+25в349041 5.0 1014206
11 августа, чт
чт1123:00+25в348995 0.2 1015200
02:00+25в339055 2.0 1013192
05:00+25в339043 0.6 1013206
08:00+27в238412 2.6 1014264
11:00+29всв12766 1.1 1014707
14:00+28всв128014 7.1 1012440
17:00+27всв228522 9.3 1012162
20:00+25всв45894 13.3 1013357
12 августа, пт
пт1223:00+25всв45899 0.1 1014343
02:00+25всв34885 0.1 1012312
05:00+24в3389100 0.1 1013251
08:00+26всв3486100 0.5 1014431
11:00+28в237985 1.1 1014707
14:00+28св238121 4.6 1012553
17:00+27всв34858 2.2 1012308
20:00+25в23885 2.4 1013268
13 августа, сб
сб1323:00+25в23895 0.0 1014261
02:00+24в2390100 0.0 1012192
05:00+24вюв239036 0.0 1012196
08:00+26юв12835 0.0 1014292
11:00+31с026099 0.1 10131115
14:00+28вюв127718 2.4 1012658
17:00+28юв128190 1.4 1012628
20:00+25вюв238848 1.7 1012159